Other Public Products
Issued by NWS Grand Forks, ND

Home | Current Version | Previous Version | Text Only | Print | Product List | Glossary On
Versions: 1 2 3 4 5 6 7 8 9 10 11 12 13 14 15 16 17 18 19 20 21 22 23 24 25 26 27 28 29 30 31 32 33 34 35 36 37 38 39 40 41 42 43 44 45 46 47 48 49 50
000
FPUS83 KFGF 042310
OPUFGF
PRAIRIE TO PINES WEATHER ROUNDUP
NATIONAL WEATHER SERVICE EASTERN NORTH DAKOTA/GRAND FORKS ND
600 PM CDT FRI SEP 04 2015

 **SATELLITE DATA USED TO AUGMENT SKY COVER AT AUTOMATED STATIONS**
 *****  WEATHER ACROSS EASTERN NORTH DAKOTA  *****

CITY           SKY/WX    TMP DP  RH WIND       PRES   REMARKS
GRAND FORKS    CLOUDY    80  67  64 S8        29.81R
GRAND FORKS AF CLOUDY    70  66  87 N10       29.83R
GRAND CITY NWS   N/A     77 N/A N/A S10         N/A
BUXTON         NOT AVBL
DEVILS LAKE    CLOUDY    73  63  68 SE12      29.79S
FARGO          CLOUDY    78  71  79 E7        29.82R
WAHPETON ARPT  CLOUDY    81  64  57 S10       29.83R
$$

 *****  WEATHER ACROSS CENTRAL AND WESTERN NORTH DAKOTA  *****

CITY           SKY/WX    TMP DP  RH WIND       PRES   REMARKS
JAMESTOWN      CLOUDY    82  68  62 SE13      29.80R
BISMARCK       SUNNY     88  67  49 CALM      29.78R HX  91
MINOT          PTSUNNY   68  58  70 N17       29.84R
MINOT AFB      CLOUDY    68  62  80 N13G21    29.84R
GARRISON         N/A     77  63  61 NE13G20   29.82R
WILLISTON      SUNNY     76  57  51 NE14      29.85S
DICKINSON      SUNNY     79  64  60 N9        29.81F
HETTINGER      SUNNY     90  54  29 S7        29.79F
$$

 *****  OTHER OBSERVATIONS NORTHEAST NORTH DAKOTA  *****

CITY           SKY/WX    TMP DP  RH WIND       PRES   REMARKS
WALHALLA       FAIR      66  66 100 MISG      29.77F
LANGDON        FAIR      66  64  94 SW12      29.84R
CAVALIER       FAIR      66  64  94 CALM      29.80S
GRAFTON        CLOUDY    66  66 100 E3        29.82F FOG
CANDO          NOT AVBL
FORT TOTTEN      N/A     73  68  83 SE5       29.95S
ROLLA          CLOUDY    64  64 100 NE10      29.88R
RUGBY          CLOUDY    72  68  88 NE7       29.83R
 ***** THE ABOVE OBSERVATIONS ARE NON NWS ARE NOT QUALITY
        CONTROLLED AND MAY MIS-REPORT RAIN FOR SNOW...
$$

 *****  OTHER OBSERVATIONS SOUTHEAST NORTH DAKOTA *****

CITY           SKY/WX    TMP DP  RH WIND       PRES   REMARKS
COOPERSTOWN    NOT AVBL
VALLEY CITY    MOCLDY    75  73  94 SE14      29.83R
OAKES            N/A     81  81 100 E8        29.80R HX  91
GWINNER          N/A     81  81 100 E9        29.82R HX  91
SHEYENNE NWR     N/A     77  72  85 E3        29.95S
BUFFALO        NOT AVBL
WYNDMERE         N/A     81  72  74 SE6         N/A
 ***** THE ABOVE OBSERVATIONS ARE NON NWS ARE NOT QUALITY
       CONTROLLED AND MAY MIS-REPORT RAIN FOR SNOW...
$$

  *****  WEATHER ACROSS NORTHERN MINNESOTA  *****

CITY           SKY/WX    TMP DP  RH WIND       PRES   REMARKS
FLAG ISLAND    CLOUDY    73  70  88 S6        29.83F
WARROAD        CLOUDY    79  73  83 SE5       29.84F
ROSEAU         RAIN      75  72  88 S3        29.83S
HALLOCK        CLOUDY    68  66  94 CALM      29.81F
THF RVR FALLS  CLOUDY    73  72  94 SE7       29.84F
HALSTAD        NOT AVBL
FOSSTON        RAIN      75  70  83 E3        29.87F
BAUDETTE       CLOUDY    82  70  66 S9        29.86F
WASKISH        CLOUDY    81  72  74 S3        29.88S
CROOKSTON      CLOUDY    75  72  88 S7        29.83R
$$
  *****  WEATHER ACROSS CENTRAL AND WEST MINNESOTA  *****

CITY           SKY/WX    TMP DP  RH WIND       PRES   REMARKS
BEMIDJI        CLOUDY    78  71  78 SE5       29.89S
PARK RAPIDS    TSTM      81  73  76 CALM      29.88R
WADENA         CLOUDY    82  72  69 SE7       29.87S
DETROIT LAKES  CLOUDY    81  70  69 SE3       29.87F
MOORHEAD       CLOUDY    77  72  83 E3        29.83S
FERGUS FALLS   CLOUDY    81  72  74 S6        29.83R
ELBOW LAKE     FAIR      80  73  77 S9        29.85R HAZE
MORRIS MN      CLOUDY    81  72  74 S15       29.85R
STAPLES        PTSUNNY   81  72  74 SE5       29.88S
WHEATON        PTSUNNY   81  70  69 SE12G17   29.84S
$$
  *****  WEATHER ELSEWHERE ACROSS MINNESOTA  *****

CITY           SKY/WX    TMP DP  RH WIND       PRES   REMARKS
DULUTH         MOSUNNY   74  65  73 E12       29.97R
INTRNTL FALLS  PTSUNNY   82  70  66 SE12      29.89S
ELY            SUNNY     79  63  57 SE15      29.97F
CLOQUET        SUNNY     70  61  73 E13       29.96R
BRAINERD       PTSUNNY   82  71  69 SE7       29.89R
HIBBING        MOSUNNY   79  68  69 SE14      29.94S
ALEXANDRIA     TSTM      81  72  74 S13       29.89R
SAINT CLOUD    MOSUNNY   86  74  67 SE13      29.88R HX  94
MINNEAPOLIS    PTSUNNY   86  72  62 SE9       29.90R HX  92
$$

  *****  WEATHER ACROSS SOUTH DAKOTA  *****

CITY           SKY/WX    TMP DP  RH WIND       PRES   REMARKS
SIOUX FALLS    PTSUNNY   81  73  76 SE14G21   29.84S
BROOKINGS      MOSUNNY  N/A N/A N/A SE20G25   29.83F
WATERTOWN      SUNNY     82  67  60 SE13      29.82F
HURON          PTSUNNY   86  71  60 SE14      29.75R HX  91
SISSETON         N/A     85  71  63 S14G21    29.81R HX  90
ABERDEEN       PTSUNNY   87  70  56 S10       29.77S HX  92
MITCHELL       SUNNY     88  72  58 SE20G25   29.75F HX  94
PIERRE         MOSUNNY   90  66  45 SE10      29.72R HX  92
MOBRIDGE         N/A     90  65  43 E9        29.73S HX  92
RAPID CITY     SUNNY     88  61  40 N8        29.78F
$$

  *****  SOME WEATHER IN NEARBY STATES *****

CITY           SKY/WX    TMP DP  RH WIND       PRES   REMARKS
GLASGOW MT     CLOUDY    73  50  44 NE13      29.86R
GREAT FALLS MT LGT RAIN  51  49  92 CALM      30.00R
CHEYENNE WY    CLOUDY    78  40  25 S10       30.03R
SCOTTSBLUFF NE MOSUNNY   89  47  23 E9        29.86S
OMAHA NE       PTSUNNY   88  72  58 SE16      29.85F HX  94
DES MOINES IA  MOSUNNY   89  70  53 S9        29.93S HX  94
DAVENPORT IA   SUNNY     88  70  55 SW5       29.97S HX  93
CHICAGO IL     MOSUNNY   78  67  68 NE10      30.01S
EAU CLAIRE WI  SUNNY     83  71  67 SE10      29.95R
LA CROSSE WI   SUNNY     87  69  54 SE8       29.94F HX  91
$$

  *****  SOME NATIONAL WEATHER *****

CITY           SKY/WX    TMP DP  RH WIND       PRES   REMARKS
LA GUARDIA NY  PTCLDY    80  66  62 SE8       30.11S
RALEIGH NC     CLOUDY    79  70  74 NE6       30.00S
ATLANTA GA     PTSUNNY   88  65  46 N6        29.99R HX  90
NEW ORLEANS LA PTSUNNY   81  71  71 S5        29.96F
OKLAHOMA CITY  MOSUNNY   92  66  42 S10       29.91S HX  94
ALBUQUERQUE NM CLOUDY    69  58  67 S5        30.13F
SALT LAKE CITY PTSUNNY   88  32  13 S29G37    29.72F
LOS ANGELES CA FAIR      74  57  55 W12       29.84F
BOISE ID       FAIR      72  40  31 W14       29.71S
SEATTLE WA     PTSUNNY   61  47  59 NE5       30.00S
$$

*** WEATHER ACROSS MANITOBA...SASKATCHEWAN AND ONTARIO ***
                ***ONTARIO***

CITY           SKY/WX    TMP DP  RH WIND       PRES   REMARKS
GERALDTON      MOSUNNY   79  59  50 S8        30.07R
THUNDER BAY    MOSUNNY   72  61  68 E7        30.06R
SIOUX LOOKOUT  PTSUNNY   81  61  50 SE8       29.94F
TORONTO        PTCLDY    77  54  44 E10       30.10S
BIG TROUT LK   MOSUNNY   70  64  83 VRB2      29.95S
PICKLE LAKE    MOSUNNY   81  57  44 S8        29.97F
DRYDEN         SUNNY     81  63  54 SE13G18   29.91F
KENORA         CLOUDY    79  68  69 SE10      29.87S
$$
                *** MANITOBA***

CITY           SKY/WX    TMP DP  RH WIND       PRES   REMARKS
BRANDON        LGT RAIN  61  61 100 N17       29.88F
DAUPHIN        CLOUDY    63  54  72 N18G24    29.94R
ISLAND LAKE    PTSUNNY   63  61  94 N7        29.96R
PILOT MOUND      N/A     64  63  94 N8          N/A
THE PAS        CLOUDY    64  46  52 N6        30.03R
THOMPSON       MOSUNNY   68  46  45 NW9       29.98R
WINNIPEG       LGT RAIN  70  70 100 E13G18    29.74F
LYNN LAKE      PTSUNNY   61  45  55 W13G20    30.02F
CHURCHILL      MOSUNNY   52  48  87 N13       29.97S
GILLAM         PTSUNNY   66  54  63 W5        29.94R
$$
                ***SASKATCHEWAN***

CITY           SKY/WX    TMP DP  RH WIND       PRES   REMARKS
ESTEVAN        CLOUDY    66  52  59 NE12G18   29.91R
KINDERSLEY     NOT AVBL
LLOYDMINSTER   PTSUNNY   55  41  58 N9        30.14R
PRINCE ALBERT  MOSUNNY   61  45  55 N10       30.06R
REGINA         PTSUNNY   61  45  55 N13G20    29.98R


USA.gov is the U.S. government's official web portal to all federal, state and local government web resources and services.